Location: ?????
(44.4284°N, 135.2222°E)
Time: 06:28:55
(UTC+00:00)

ALOS - Pass Details

Date: 19 May 2025
Orbit: 663 x 666 km, 98.1° (Epoch: 23 June)

Event Time Altitude Azimuth Distance (km) Brightness Sun altitude
Rises 17:14:21 0° 19° (NNE) 3,014 7.1 -18.3°
Reaches altitude 10° 17:16:42 10° 27° (NNE) 2,095 6.0 -18.0°
Maximum altitude 17:21:02 42° 98° (E) 946 3.2 -17.6°
Enters shadow 17:24:16 17° 164° (SSE) 1,681 3.9 -17.2°
